Weather in Cieszyn

Poland     49°44′55″N   18°38′00″E
temp.,
°C
wind,
m/s
gust,
m/s
humid.,
%
clouds,
%
prec.,
mm/h
press.,
hPa
HPBL,
m
6 may, thu
thu623:00+5wsw4138585 0.5 1009698
02:00+3wsw410885 0.6 1011386
05:00+2sw37911 0.0 1012209
08:00+6sw377311 0.0 1013783
11:00+10wsw6105194 0.0 10121923
14:00+12wsw71144100 0.2 10112259
17:00+12sw6105147 0.1 10092068
20:00+8ssw61373100 0.1 1009761
7 may, fri
fri723:00+8s51367100 0.0 1008841
02:00+6sse41281100 0.0 1006593
05:00+8ssw51275100 0.0 10051028
08:00+9sw61177100 0.1 10061060
11:00+11wsw8127074 0.4 10071526
14:00+10wsw61063100 0.9 10081675
17:00+9wnw696478 0.7 10101637
20:00+4wnw2785100 1.7 1014154
8 may, sat
sat823:00+2wsw229477 0.6 101728
02:00+1sw23946 1.0 101967
05:00+1ssw349387 0.0 1020116
08:00+5sw357977 0.0 1022467
11:00+9w355577 0.1 10211697
14:00+10wsw364788 0.2 10211815
17:00+12wnw364057 0.3 10202257
20:00+6s0168100 0.3 102110
9 may, sun
sun923:00+5sse337072 0.0 102242
02:00+4sse357656 0.0 102279
05:00+3sse357469 0.0 102278
08:00+10s4105720 0.0 1020528
11:00+15ssw69445 0.0 10191184
14:00+18s573711 0.0 10181427
17:00+18s57445 0.0 10171140
20:00+11s34705 0.0 101748
10 may, mon
mon1023:00+8sse34805 0.0 101864
02:00+7sse35822 0.0 101773
05:00+6sse34790 0.0 101667
08:00+13sse35600 0.0 1014304
11:00+20s512415 0.0 10141410
14:00+22ssw611423 0.0 10141692
17:00+21ssw611531 0.0 10151634
20:00+15s32750 0.0 101541